Find Florbela

NORAD ID: 100529 Int'l Des: 2026-156 Owner: LUSO Country: P operational

当前视图

正在加载3D地球...

About Florbela

Florbela (NORAD 100529) is a satellite launched Jul 7, 2026 by LUSO of P. with a mass of 15.00 kg.

即将过境

Passes for default location (London). Set your location on the main map for personalized predictions.

高度历史

Loading altitude history...

两行轨道根数

1 A0529U 26156CD 26264.18299606 .00001197 00000-0 12101-3 0 9993
2 A0529 97.5923 162.4159 0008178 237.7963 122.2464 14.92786321 11312
Epoch: Sep 21, 2026 • Age: 12 hours

当前状态

高度 606.1 km
远地点 / 近地点 N/A
速度 7.56 km/s
星下点 75.78°N, 132.25°E
发射日期 Jul 7, 2026
运行时间 0.2 years
类型 other

技术详情

分类 Payload
质量 15.00 kg
直径 0.20 m
跨度 0.40 m
形状 Box
制造商 LUSO
平台类型 Cubesat 8U
阶段状态 In Orbit
所有者/国家 LUSO/P

Most Searched